This is the latest recevied weather packets stored in our database for station/object JE4YKI-13. If no packets are shown the sender has not sent any weather packets the latest 10 day(s).
| Time | Temp. | Humidity | Pressure | Rain* | Wind** | Luminosity | Snow |
|---|---|---|---|---|---|---|---|
| 1777891142 | 13.89° C | 61% | 1014.5 hPa | 0 mm | - | - | - |
| 1777890541 | 13.89° C | 61% | 1014.5 hPa | 0 mm | - | - | - |
| 1777889941 | 14.44° C | 59% | 1014.3 hPa | 0 mm | - | - | - |
| 1777889341 | 14.44° C | 57% | 1014 hPa | 0 mm | - | - | - |
| 1777888137 | 15° C | 54% | 1013.9 hPa | 0 mm | - | - | - |
| 1777887537 | 15° C | 54% | 1013.7 hPa | 0 mm | - | - | - |
| 1777886936 | 15.56° C | 56% | 1013.5 hPa | 0 mm | - | - | - |
| 1777886336 | 15.56° C | 56% | 1013.5 hPa | 0 mm | - | - | - |
| 1777885735 | 15.56° C | 56% | 1013.6 hPa | 0 mm | - | - | - |
| 1777885134 | 15.56° C | 55% | 1013.3 hPa | 0 mm | - | - | - |
| 1777884533 | 15.56° C | 55% | 1013.2 hPa | 0 mm | - | - | - |
| 1777883932 | 15.56° C | 54% | 1013.1 hPa | 0 mm | - | - | - |
| 1777883332 | 15.56° C | 54% | 1013.1 hPa | 0 mm | - | - | - |
| 1777882732 | 16.11° C | 53% | 1012.9 hPa | 0 mm | - | - | - |
| 1777882131 | 16.67° C | 50% | 1012.8 hPa | 0 mm | - | - | - |
| 1777881530 | 16.67° C | 46% | 1012.5 hPa | 0 mm | - | - | - |
| 1777880329 | 17.78° C | 44% | 1012.1 hPa | 0 mm | - | - | - |
| 1777879729 | 17.78° C | 43% | 1011.9 hPa | 0 mm | - | - | - |
| 1777879129 | 17.78° C | 41% | 1011.9 hPa | 0 mm | - | - | - |
| 1777878528 | 17.78° C | 39% | 1011.9 hPa | 0 mm | - | - | - |
| 1777877929 | 18.33° C | 38% | 1011.5 hPa | 0 mm | - | - | - |
| 1777877328 | 18.33° C | 37% | 1011.3 hPa | 0 mm | - | - | - |
| 1777876727 | 17.78° C | 37% | 1011.1 hPa | 0 mm | - | - | - |
| 1777876127 | 18.33° C | 38% | 1010.9 hPa | 0 mm | - | - | - |
| 1777875526 | 18.33° C | 38% | 1010.9 hPa | 0 mm | - | - | - |
* Rain latest hour (hover to see other rain measurements)
** Current wind speed in m/s (hover to see current wind gust speed)